| time (UTC) | temp F | wind direction | speed knots | gust knots | rain 1hr in | rain 24hr in | rain mn in | humidity % | barometer mb |
| 20260504014436 | 50 | 137 | 0.0 | 0.0 | 0.00 | 0.00 | 0.00 | 75 | 1007.4 |
| 20260504013936 | 51 | 137 | 0.0 | 0.0 | 0.00 | 0.00 | 0.00 | 75 | 1007.3 |
| 20260504012935 | 51 | 139 | 1.7 | 0.0 | 0.00 | 0.00 | 0.00 | 74 | 1007.2 |
| 20260504012435 | 51 | 146 | 0.0 | 0.0 | 0.00 | 0.00 | 0.00 | 74 | 1007.2 |
| 20260504011934 | 52 | 146 | 0.9 | 0.0 | 0.00 | 0.00 | 0.00 | 73 | 1007.1 |
| 20260504011434 | 52 | 146 | 0.0 | 0.0 | 0.00 | 0.00 | 0.00 | 73 | 1007.2 |
| 20260504010934 | 52 | 146 | 0.0 | 0.0 | 0.00 | 0.00 | 0.00 | 72 | 1007.1 |
| 20260504010434 | 52 | 146 | 0.0 | 0.0 | 0.00 | 0.00 | 0.00 | 72 | 1007.1 |
| 20260504005933 | 52 | 146 | 1.7 | 0.0 | 0.00 | 0.00 | 0.00 | 71 | 1007.1 |
| 20260504005433 | 52 | 232 | 0.0 | 0.0 | 0.00 | 0.00 | 0.00 | 71 | 1007.2 |
| 20260504004933 | 52 | 232 | 0.0 | 0.0 | 0.00 | 0.00 | 0.00 | 71 | 1007.2 |
| 20260504004432 | 52 | 232 | 0.9 | 0.0 | 0.00 | 0.00 | 0.00 | 71 | 1007.2 |
| 20260504003932 | 53 | 228 | 0.0 | 0.0 | 0.00 | 0.00 | 0.00 | 71 | 1007.2 |
| 20260504003432 | 53 | 225 | 1.7 | 0.0 | 0.00 | 0.00 | 0.00 | 71 | 1007.3 |
| 20260504002932 | 53 | 240 | 0.9 | 0.0 | 0.00 | 0.00 | 0.00 | 71 | 1007.3 |
| 20260504002431 | 53 | 232 | 1.7 | 0.0 | 0.00 | 0.00 | 0.00 | 71 | 1007.3 |
| 20260504001931 | 53 | 223 | 0.9 | 0.0 | 0.00 | 0.00 | 0.00 | 71 | 1007.3 |
| 20260504001431 | 53 | 214 | 3.5 | 0.0 | 0.00 | 0.00 | 0.00 | 71 | 1007.3 |
| 20260504000931 | 53 | 200 | 0.0 | 0.0 | 0.00 | 0.00 | 0.00 | 71 | 1007.3 |
| 20260504000431 | 52 | 225 | 4.3 | 0.0 | 0.00 | 0.00 | 0.00 | 71 | 1007.2 |
| 20260503235930 | 52 | 209 | 3.5 | 0.0 | 0.00 | 0.00 | 0.00 | 71 | 1007.2 |
| 20260503235430 | 52 | 214 | 2.6 | 0.0 | 0.00 | 0.00 | 0.00 | 72 | 1007.3 |
| 20260503234929 | 52 | 207 | 0.9 | 0.0 | 0.00 | 0.00 | 0.00 | 72 | 1007.3 |
| 20260503234429 | 52 | 207 | 3.5 | 0.0 | 0.00 | 0.00 | 0.00 | 72 | 1007.4 |
| 20260503233929 | 52 | 238 | 1.7 | 0.0 | 0.00 | 0.00 | 0.00 | 72 | 1007.6 |
| 20260503233428 | 52 | 234 | 1.7 | 0.0 | 0.00 | 0.00 | 0.00 | 72 | 1007.6 |
| 20260503232928 | 52 | 248 | 3.5 | 0.0 | 0.00 | 0.00 | 0.00 | 72 | 1007.6 |
| 20260503231928 | 52 | 226 | 4.3 | 0.0 | 0.00 | 0.00 | 0.00 | 73 | 1007.7 |
| 20260503231427 | 52 | 231 | 7.0 | 0.0 | 0.00 | 0.00 | 0.00 | 73 | 1007.8 |
| 20260503230927 | 52 | 236 | 6.1 | 0.0 | 0.00 | 0.00 | 0.00 | 73 | 1007.8 |
| 20260503230427 | 52 | 211 | 7.0 | 0.0 | 0.00 | 0.00 | 0.00 | 73 | 1007.8 |
| 20260503225926 | 52 | 302 | 2.6 | 0.0 | 0.00 | 0.00 | 0.00 | 73 | 1008.0 |
| 20260503225426 | 52 | 198 | 2.6 | 0.0 | 0.00 | 0.00 | 0.00 | 74 | 1008.0 |
| 20260503224926 | 52 | 235 | 9.6 | 0.0 | 0.00 | 0.00 | 0.00 | 74 | 1008.0 |
| 20260503224426 | 52 | 263 | 2.6 | 0.0 | 0.00 | 0.00 | 0.00 | 75 | 1007.9 |
| 20260503223925 | 52 | 243 | 1.7 | 0.0 | 0.00 | 0.00 | 0.00 | 75 | 1008.0 |
| 20260503223425 | 52 | 195 | 2.6 | 0.0 | 0.00 | 0.00 | 0.00 | 75 | 1008.1 |
| 20260503222925 | 52 | 219 | 9.6 | 0.0 | 0.00 | 0.00 | 0.00 | 75 | 1008.1 |
| 20260503222424 | 52 | 240 | 3.5 | 0.0 | 0.00 | 0.00 | 0.00 | 75 | 1008.2 |
| 20260503221924 | 52 | 251 | 2.6 | 0.0 | 0.00 | 0.00 | 0.00 | 75 | 1008.1 |
| 20260503221424 | 52 | 225 | 2.6 | 0.0 | 0.00 | 0.00 | 0.00 | 75 | 1008.1 |
| 20260503220924 | 52 | 273 | 3.5 | 0.0 | 0.00 | 0.00 | 0.00 | 75 | 1008.2 |
| 20260503220423 | 52 | 225 | 5.2 | 0.0 | 0.00 | 0.00 | 0.00 | 74 | 1008.3 |
| 20260503215923 | 52 | 217 | 2.6 | 0.0 | 0.00 | 0.00 | 0.00 | 74 | 1008.3 |
| 20260503215423 | 52 | 213 | 4.3 | 0.0 | 0.00 | 0.00 | 0.00 | 73 | 1008.3 |
| 20260503214922 | 52 | 251 | 7.8 | 0.0 | 0.00 | 0.00 | 0.00 | 72 | 1008.2 |
| 20260503214422 | 52 | 213 | 3.5 | 0.0 | 0.00 | 0.00 | 0.00 | 72 | 1008.2 |
| 20260503213422 | 53 | 249 | 7.8 | 0.0 | 0.00 | 0.00 | 0.00 | 72 | 1008.1 |
| 20260503212921 | 53 | 242 | 1.7 | 0.0 | 0.00 | 0.00 | 0.00 | 71 | 1008.1 |
| 20260503212421 | 53 | 355 | 5.2 | 0.0 | 0.00 | 0.00 | 0.00 | 71 | 1008.1 |
| 20260503211921 | 52 | 196 | 5.2 | 0.0 | 0.00 | 0.00 | 0.00 | 72 | 1007.9 |
| 20260503211420 | 50 | 189 | 0.9 | 0.0 | 0.00 | 0.00 | 0.00 | 73 | 1007.7 |
| 20260503210920 | 50 | 181 | 0.9 | 0.0 | 0.00 | 0.00 | 0.00 | 72 | 1007.7 |
| 20260503205920 | 50 | 108 | 0.9 | 0.0 | 0.00 | 0.00 | 0.00 | 70 | 1007.7 |
| 20260503204919 | 49 | 123 | 0.0 | 0.0 | 0.00 | 0.00 | 0.00 | 69 | 1007.7 |
| 20260503204419 | 49 | 127 | 1.7 | 0.0 | 0.00 | 0.00 | 0.00 | 66 | 1007.6 |
| 20260503203919 | 49 | 80 | 0.0 | 0.0 | 0.00 | 0.00 | 0.00 | 66 | 1007.6 |
| 20260503203418 | 49 | 119 | 0.9 | 0.0 | 0.00 | 0.00 | 0.00 | 66 | 1007.6 |
| 20260503202918 | 49 | 33 | 0.0 | 0.0 | 0.00 | 0.00 | 0.00 | 66 | 1007.6 |
| 20260503201917 | 49 | 121 | 1.7 | 0.0 | 0.00 | 0.00 | 0.00 | 64 | 1007.9 |
| 20260503201417 | 49 | 148 | 3.5 | 0.0 | 0.00 | 0.00 | 0.00 | 63 | 1008.0 |
| 20260503200917 | 50 | 130 | 0.9 | 0.0 | 0.00 | 0.00 | 0.00 | 62 | 1008.1 |
| 20260503195916 | 50 | 123 | 0.9 | 0.0 | 0.00 | 0.00 | 0.00 | 60 | 1008.0 |
| 20260503194916 | 50 | 174 | 0.0 | 0.0 | 0.00 | 0.00 | 0.00 | 59 | 1008.0 |
| 20260503193915 | 51 | 138 | 4.3 | 0.0 | 0.00 | 0.00 | 0.00 | 58 | 1008.1 |
| 20260503192915 | 52 | 136 | 3.5 | 0.0 | 0.00 | 0.00 | 0.00 | 56 | 1008.3 |
| 20260503191914 | 53 | 118 | 1.7 | 0.0 | 0.00 | 0.00 | 0.00 | 53 | 1009.0 |
| 20260503190913 | 52 | 133 | 1.7 | 0.0 | 0.00 | 0.00 | 0.00 | 52 | 1009.2 |
| 20260503190413 | 52 | 160 | 4.3 | 0.0 | 0.00 | 0.00 | 0.00 | 51 | 1009.2 |
| 20260503185913 | 52 | 178 | 1.7 | 0.0 | 0.00 | 0.00 | 0.00 | 49 | 1009.2 |
| 20260503184912 | 52 | 115 | 1.7 | 0.0 | 0.00 | 0.00 | 0.00 | 49 | 1009.4 |
| 20260503184412 | 52 | 120 | 2.6 | 0.0 | 0.00 | 0.00 | 0.00 | 48 | 1009.5 |
| 20260503183411 | 52 | 119 | 3.5 | 0.0 | 0.00 | 0.00 | 0.00 | 47 | 1009.6 |
| 20260503182911 | 52 | 144 | 1.7 | 0.0 | 0.00 | 0.00 | 0.00 | 47 | 1009.8 |
| 20260503182411 | 51 | 141 | 3.5 | 0.0 | 0.00 | 0.00 | 0.00 | 46 | 1009.9 |
| 20260503181911 | 52 | 140 | 4.3 | 0.0 | 0.00 | 0.00 | 0.00 | 46 | 1009.9 |
| 20260503180910 | 52 | 159 | 3.5 | 0.0 | 0.00 | 0.00 | 0.00 | 45 | 1010.0 |
| 20260503180410 | 52 | 142 | 5.2 | 0.0 | 0.00 | 0.00 | 0.00 | 47 | 1010.1 |
| 20260503175909 | 52 | 138 | 7.8 | 0.0 | 0.00 | 0.00 | 0.00 | 47 | 1010.1 |
| 20260503174909 | 51 | 147 | 4.3 | 0.0 | 0.00 | 0.00 | 0.00 | 51 | 1010.4 |
| 20260503174409 | 51 | 169 | 4.3 | 0.0 | 0.00 | 0.00 | 0.00 | 51 | 1010.5 |
| 20260503173908 | 51 | 144 | 5.2 | 0.0 | 0.00 | 0.00 | 0.00 | 50 | 1010.6 |
| 20260503173408 | 51 | 135 | 7.0 | 0.0 | 0.00 | 0.00 | 0.00 | 47 | 1010.6 |
| 20260503172908 | 50 | 144 | 1.7 | 0.0 | 0.00 | 0.00 | 0.00 | 49 | 1010.7 |
| 20260503172407 | 50 | 159 | 3.5 | 0.0 | 0.00 | 0.00 | 0.00 | 54 | 1010.8 |
| 20260503171907 | 49 | 140 | 3.5 | 0.0 | 0.00 | 0.00 | 0.00 | 55 | 1010.9 |
| 20260503171407 | 49 | 140 | 3.5 | 0.0 | 0.00 | 0.00 | 0.00 | 54 | 1011.0 |
| 20260503170907 | 49 | 165 | 1.7 | 0.0 | 0.00 | 0.00 | 0.00 | 54 | 1011.1 |
| 20260503170406 | 49 | 166 | 4.3 | 0.0 | 0.00 | 0.00 | 0.00 | 57 | 1011.1 |
| 20260503150900 | 43 | 160 | 6.1 | 0.0 | 0.00 | 0.00 | 0.00 | 71 | 1012.3 |
| 20260503150400 | 44 | 141 | 3.5 | 0.0 | 0.00 | 0.00 | 0.00 | 71 | 1012.4 |
| 20260503131353 | 43 | 145 | 5.2 | 0.0 | 0.00 | 0.00 | 0.00 | 71 | 1012.8 |
| 20260503130853 | 43 | 130 | 1.7 | 0.0 | 0.00 | 0.00 | 0.00 | 70 | 1012.8 |
| 20260503130353 | 43 | 115 | 2.6 | 0.0 | 0.00 | 0.00 | 0.00 | 70 | 1012.5 |
| 20260503110346 | 33 | 320 | 0.0 | 0.0 | 0.00 | 0.00 | 0.00 | 75 | 1013.0 |
| 20260503090339 | 32 | 320 | 0.9 | 0.0 | 0.00 | 0.00 | 0.00 | 73 | 1013.3 |
| 20260503080836 | 32 | 320 | 0.9 | 0.0 | 0.00 | 0.00 | 0.00 | 74 | 1013.6 |
| 20260503080336 | 33 | 320 | 0.0 | 0.0 | 0.00 | 0.00 | 0.00 | 74 | 1013.6 |
| 20260503072834 | 33 | 320 | 0.9 | 0.0 | 0.00 | 0.00 | 0.00 | 73 | 1013.6 |
| 20260503072333 | 33 | 320 | 0.9 | 0.0 | 0.00 | 0.00 | 0.00 | 73 | 1013.6 |
| 20260503071833 | 33 | 320 | 0.9 | 0.0 | 0.00 | 0.00 | 0.00 | 73 | 1013.6 |
| 20260503071333 | 33 | 320 | 0.0 | 0.0 | 0.00 | 0.00 | 0.00 | 72 | 1013.7 |
| 20260503070833 | 33 | 320 | 0.0 | 0.0 | 0.00 | 0.00 | 0.00 | 72 | 1013.6 |
| 20260503070332 | 33 | 320 | 0.0 | 0.0 | 0.00 | 0.00 | 0.00 | 72 | 1013.6 |
| 20260503060329 | 36 | 320 | 0.0 | 0.0 | 0.00 | 0.00 | 0.00 | 67 | 1014.0 |
| 20260503054828 | 36 | 320 | 0.0 | 0.0 | 0.00 | 0.00 | 0.00 | 65 | 1014.0 |
| 20260503054328 | 36 | 320 | 0.0 | 0.0 | 0.00 | 0.00 | 0.00 | 64 | 1014.0 |
| 20260503053827 | 37 | 320 | 0.0 | 0.0 | 0.00 | 0.00 | 0.00 | 64 | 1014.1 |
| 20260503053327 | 37 | 320 | 0.0 | 0.0 | 0.00 | 0.00 | 0.00 | 63 | 1014.1 |
| 20260503050826 | 38 | 320 | 0.0 | 0.0 | 0.00 | 0.00 | 0.00 | 61 | 1014.2 |
| 20260503050325 | 38 | 320 | 0.0 | 0.0 | 0.00 | 0.00 | 0.00 | 61 | 1014.2 |
| 20260503045825 | 38 | 292 | 0.9 | 0.0 | 0.00 | 0.00 | 0.00 | 60 | 1014.2 |
| 20260503045325 | 38 | 286 | 0.9 | 0.0 | 0.00 | 0.00 | 0.00 | 60 | 1014.2 |
| 20260503044324 | 38 | 290 | 1.7 | 0.0 | 0.00 | 0.00 | 0.00 | 60 | 1014.3 |
| 20260503043824 | 38 | 311 | 1.7 | 0.0 | 0.00 | 0.00 | 0.00 | 60 | 1014.3 |
| 20260503042824 | 39 | 248 | 0.9 | 0.0 | 0.00 | 0.00 | 0.00 | 61 | 1014.3 |
| 20260503041323 | 39 | 223 | 0.9 | 0.0 | 0.00 | 0.00 | 0.00 | 62 | 1014.3 |
| 20260503040822 | 39 | 225 | 1.7 | 0.0 | 0.00 | 0.00 | 0.00 | 62 | 1014.3 |
| 20260503040322 | 39 | 228 | 2.6 | 0.0 | 0.00 | 0.00 | 0.00 | 62 | 1014.3 |
| 20260503035321 | 39 | 235 | 1.7 | 0.0 | 0.00 | 0.00 | 0.00 | 62 | 1014.4 |
| 20260503034821 | 39 | 240 | 1.7 | 0.0 | 0.00 | 0.00 | 0.00 | 63 | 1014.3 |
| 20260503034321 | 39 | 226 | 0.9 | 0.0 | 0.00 | 0.00 | 0.00 | 63 | 1014.4 |
| 20260503033821 | 39 | 225 | 0.9 | 0.0 | 0.00 | 0.00 | 0.00 | 63 | 1014.4 |
| 20260503033320 | 38 | 237 | 1.7 | 0.0 | 0.00 | 0.00 | 0.00 | 63 | 1014.3 |
| 20260503032820 | 38 | 232 | 0.9 | 0.0 | 0.00 | 0.00 | 0.00 | 64 | 1014.4 |
| 20260503032320 | 38 | 232 | 0.9 | 0.0 | 0.00 | 0.00 | 0.00 | 64 | 1014.3 |
| 20260503031820 | 38 | 232 | 0.0 | 0.0 | 0.00 | 0.00 | 0.00 | 64 | 1014.3 |
| 20260503031319 | 38 | 232 | 0.9 | 0.0 | 0.00 | 0.00 | 0.00 | 65 | 1014.3 |
| 20260503030819 | 38 | 211 | 0.9 | 0.0 | 0.00 | 0.00 | 0.00 | 66 | 1014.3 |
| 20260503030319 | 38 | 227 | 0.9 | 0.0 | 0.00 | 0.00 | 0.00 | 66 | 1014.3 |
| 20260503025818 | 38 | 227 | 0.0 | 0.0 | 0.00 | 0.00 | 0.00 | 67 | 1014.3 |
| 20260503025318 | 38 | 227 | 0.0 | 0.0 | 0.00 | 0.00 | 0.00 | 66 | 1014.3 |
| 20260503024818 | 38 | 227 | 0.0 | 0.0 | 0.00 | 0.00 | 0.00 | 66 | 1014.4 |
| 20260503024318 | 39 | 227 | 0.0 | 0.0 | 0.00 | 0.00 | 0.00 | 66 | 1014.4 |
| 20260503023817 | 39 | 227 | 0.9 | 0.0 | 0.00 | 0.00 | 0.00 | 65 | 1014.5 |
| 20260503023317 | 39 | 227 | 0.0 | 0.0 | 0.00 | 0.00 | 0.00 | 64 | 1014.5 |
| 20260503022817 | 40 | 227 | 0.0 | 0.0 | 0.00 | 0.00 | 0.00 | 63 | 1014.5 |
| 20260503022316 | 40 | 227 | 0.0 | 0.0 | 0.00 | 0.00 | 0.00 | 62 | 1014.6 |
| 20260503021816 | 40 | 227 | 0.0 | 0.0 | 0.00 | 0.00 | 0.00 | 62 | 1014.6 |
| 20260503020816 | 41 | 227 | 0.0 | 0.0 | 0.00 | 0.00 | 0.00 | 61 | 1014.6 |
| 20260503020315 | 41 | 227 | 0.0 | 0.0 | 0.00 | 0.00 | 0.00 | 61 | 1014.5 |
| 20260503015315 | 41 | 227 | 0.0 | 0.0 | 0.00 | 0.00 | 0.00 | 60 | 1014.5 |
| 20260503014814 | 42 | 227 | 0.0 | 0.0 | 0.00 | 0.00 | 0.00 | 60 | 1014.5 |